• In Hungary
  • List of Countries
  • For 7 days
  • Water Temperature
  • Satellite Maps
  • Weather Map
  • News
  • Weather Widgets
  • user-avatar
    Login

    Hourly Weather Kitzbuhel

    Today, 21 August, Tuesday

    Time Temperature Precipitation Wind Pressure Humidity
    00:00 +15°C° 0.1 mm 1 mps 680 mmHg 93%
    01:00 +16°C° 0 mm 1 mps 680 mmHg 94%
    02:00 +15°C° 0 mm 1 mps 680 mmHg 94%
    03:00 +15°C° 0 mm 1 mps 680 mmHg 93%
    04:00 +14°C° 0 mm 1 mps 680 mmHg 93%
    05:00 +15°C° 0 mm 1 mps 680 mmHg 91%
    06:00 +16°C° 0 mm 1 mps 681 mmHg 89%
    07:00 +19°C° 0 mm 1 mps 681 mmHg 85%
    08:00 +21°C° 0 mm 1 mps 682 mmHg 77%
    09:00 +23°C° 0 mm 1 mps 682 mmHg 68%
    10:00 +25°C° 0 mm 1 mps 682 mmHg 59%
    11:00 +25°C° 0.3 mm 1 mps 682 mmHg 58%
    12:00 +26°C° 0.3 mm 1 mps 682 mmHg 57%
    13:00 +26°C° 0.3 mm 2 mps 682 mmHg 56%
    14:00 +26°C° 0.8 mm 2 mps 682 mmHg 61%
    15:00 +25°C° 0.8 mm 2 mps 681 mmHg 65%
    16:00 +25°C° 0.8 mm 2 mps 681 mmHg 70%
    17:00 +23°C° 0.7 mm 1 mps 681 mmHg 77%
    18:00 +21°C° 0.7 mm 1 mps 680 mmHg 83%
    19:00 +20°C° 0.7 mm 1 mps 680 mmHg 90%
    20:00 +19°C° 0.2 mm 1 mps 680 mmHg 91%
    21:00 +18°C° 0.2 mm 1 mps 680 mmHg 92%
    22:00 +18°C° 0.2 mm 1 mps 681 mmHg 93%
    23:00 +16°C° 0 mm 1 mps 680 mmHg 93%

    Tomorrow, 22 August, Wednesday

    Time Temperature Precipitation Wind Pressure Humidity
    00:00 +16°C° 0 mm 1 mps 680 mmHg 93%
    01:00 +15°C° 0 mm 1 mps 680 mmHg 93%
    02:00 +15°C° 0 mm 1 mps 680 mmHg 92%
    03:00 +15°C° 0 mm 1 mps 680 mmHg 92%
    04:00 +15°C° 0 mm 1 mps 680 mmHg 92%
    05:00 +16°C° 0 mm 1 mps 680 mmHg 90%
    06:00 +16°C° 0 mm 1 mps 680 mmHg 88%
    07:00 +18°C° 0 mm 1 mps 680 mmHg 86%
    08:00 +21°C° 0 mm 1 mps 681 mmHg 76%
    09:00 +23°C° 0 mm 1 mps 681 mmHg 66%
    10:00 +26°C° 0 mm 1 mps 682 mmHg 56%
    11:00 +26°C° 0.4 mm 1 mps 681 mmHg 57%
    12:00 +27°C° 0.4 mm 2 mps 681 mmHg 58%
    13:00 +27°C° 0.4 mm 2 mps 681 mmHg 59%
    14:00 +26°C° 1.7 mm 2 mps 681 mmHg 64%
    15:00 +26°C° 1.7 mm 2 mps 680 mmHg 70%
    16:00 +25°C° 1.7 mm 2 mps 680 mmHg 75%
    17:00 +23°C° 1.3 mm 1 mps 680 mmHg 80%
    18:00 +22°C° 1.3 mm 1 mps 680 mmHg 84%
    19:00 +18°C° 1.3 mm 0 mps 680 mmHg 88%
    20:00 +20°C° 0.4 mm 1 mps 680 mmHg 90%
    21:00 +19°C° 0.4 mm 1 mps 680 mmHg 91%
    22:00 +18°C° 0.4 mm 1 mps 680 mmHg 92%
    23:00 +18°C° 0 mm 1 mps 680 mmHg 92%

    Day after tomorrow, 23 August, Thursday

    Time Temperature Precipitation Wind Pressure Humidity
    00:00 +18°C° 0 mm 1 mps 680 mmHg 91%
    01:00 +16°C° 0 mm 1 mps 679 mmHg 91%
    02:00 +16°C° 0.3 mm 1 mps 679 mmHg 91%
    03:00 +16°C° 0.3 mm 1 mps 679 mmHg 91%
    04:00 +16°C° 0.3 mm 1 mps 679 mmHg 91%
    05:00 +16°C° 0.1 mm 1 mps 679 mmHg 89%
    06:00 +18°C° 0.1 mm 1 mps 679 mmHg 88%
    07:00 +19°C° 0.1 mm 1 mps 679 mmHg 86%
    08:00 +21°C° 0.2 mm 1 mps 679 mmHg 79%
    09:00 +23°C° 0.2 mm 1 mps 679 mmHg 72%
    10:00 +23°C° 0.2 mm 0 mps 680 mmHg 65%
    11:00 +25°C° 0.9 mm 1 mps 679 mmHg 64%
    12:00 +26°C° 0.9 mm 1 mps 679 mmHg 63%
    13:00 +26°C° 0.9 mm 1 mps 679 mmHg 62%
    14:00 +25°C° 1.6 mm 1 mps 679 mmHg 66%
    15:00 +25°C° 1.6 mm 1 mps 678 mmHg 70%
    16:00 +24°C° 1.6 mm 1 mps 678 mmHg 74%
    17:00 +23°C° 1 mm 1 mps 678 mmHg 79%
    18:00 +21°C° 1 mm 1 mps 677 mmHg 83%
    19:00 +20°C° 1 mm 1 mps 677 mmHg 88%
    20:00 +19°C° 0.3 mm 1 mps 677 mmHg 88%
    21:00 +19°C° 0.3 mm 1 mps 677 mmHg 89%
    22:00 +18°C° 0.3 mm 1 mps 677 mmHg 90%
    23:00 +18°C° 0.1 mm 1 mps 677 mmHg 90%

    24 August, Friday

    Time Temperature Precipitation Wind Pressure Humidity
    00:00 +16°C° 0.1 mm 1 mps 677 mmHg 90%
    01:00 +16°C° 0.1 mm 1 mps 676 mmHg 90%
    02:00 +15°C° 0.1 mm 1 mps 676 mmHg 90%
    03:00 +15°C° 0.1 mm 1 mps 676 mmHg 90%
    04:00 +15°C° 0.1 mm 1 mps 675 mmHg 90%
    05:00 +15°C° 0.1 mm 1 mps 676 mmHg 88%
    06:00 +16°C° 0.1 mm 1 mps 676 mmHg 87%
    07:00 +18°C° 0.1 mm 1 mps 676 mmHg 86%
    08:00 +19°C° 0.4 mm 1 mps 676 mmHg 82%
    09:00 +20°C° 0.4 mm 1 mps 676 mmHg 78%
    10:00 +22°C° 0.4 mm 1 mps 676 mmHg 74%
    11:00 +22°C° 0.6 mm 1 mps 676 mmHg 72%
    12:00 +23°C° 0.6 mm 1 mps 676 mmHg 70%
    13:00 +23°C° 0.6 mm 1 mps 676 mmHg 68%
    14:00 +22°C° 1 mm 1 mps 676 mmHg 73%
    15:00 +22°C° 1 mm 1 mps 675 mmHg 78%
    16:00 +21°C° 1 mm 1 mps 675 mmHg 82%
    17:00 +20°C° 1.6 mm 1 mps 675 mmHg 87%
    18:00 +19°C° 1.6 mm 1 mps 675 mmHg 91%
    19:00 +16°C° 1.6 mm 1 mps 675 mmHg 96%
    20:00 +16°C° 2.3 mm 1 mps 675 mmHg 96%
    21:00 +15°C° 2.3 mm 1 mps 675 mmHg 97%
    22:00 +15°C° 2.3 mm 1 mps 675 mmHg 97%
    23:00 +15°C° 1.4 mm 1 mps 675 mmHg 97%

    25 August, Saturday

    Time Temperature Precipitation Wind Pressure Humidity
    00:00 +14°C° 1.4 mm 1 mps 675 mmHg 97%
    01:00 +14°C° 1.4 mm 2 mps 675 mmHg 97%
    02:00 +14°C° 0.9 mm 2 mps 675 mmHg 98%
    03:00 +13°C° 0.9 mm 1 mps 675 mmHg 98%
    04:00 +13°C° 0.9 mm 1 mps 674 mmHg 98%
    05:00 +13°C° 0.9 mm 1 mps 674 mmHg 98%
    06:00 +13°C° 0.9 mm 1 mps 674 mmHg 98%
    07:00 +12°C° 0.9 mm 1 mps 674 mmHg 98%
    08:00 +12°C° 0.9 mm 1 mps 674 mmHg 97%
    09:00 +12°C° 0.9 mm 1 mps 674 mmHg 97%
    10:00 +12°C° 0.9 mm 1 mps 674 mmHg 97%
    11:00 +12°C° 1 mm 1 mps 674 mmHg 96%
    12:00 +12°C° 1 mm 1 mps 674 mmHg 96%
    13:00 +12°C° 1 mm 1 mps 673 mmHg 96%
    14:00 +12°C° 1.3 mm 2 mps 673 mmHg 96%
    15:00 +12°C° 1.3 mm 2 mps 673 mmHg 97%
    16:00 +12°C° 1.3 mm 2 mps 672 mmHg 97%
    17:00 +10°C° 2.3 mm 2 mps 672 mmHg 98%
    18:00 +10°C° 2.3 mm 2 mps 672 mmHg 98%
    19:00 +9°C° 2.3 mm 2 mps 672 mmHg 98%
    20:00 +9°C° 3.3 mm 2 mps 672 mmHg 98%
    21:00 +8°C° 3.3 mm 2 mps 672 mmHg 98%
    22:00 +8°C° 3.3 mm 2 mps 672 mmHg 98%
    23:00 +8°C° 3.7 mm 2 mps 673 mmHg 98%

    26 August, Sunday

    Time Temperature Precipitation Wind Pressure Humidity
    00:00 +7°C° 3.7 mm 2 mps 673 mmHg 98%
    01:00 +7°C° 3.7 mm 2 mps 673 mmHg 98%
    02:00 +6°C° 2.5 mm 2 mps 673 mmHg 98%
    03:00 +6°C° 2.5 mm 2 mps 673 mmHg 98%
    04:00 +6°C° 2.5 mm 2 mps 673 mmHg 98%
    05:00 +6°C° 1.7 mm 2 mps 673 mmHg 98%
    06:00 +6°C° 1.7 mm 2 mps 674 mmHg 98%
    07:00 +5°C° 1.7 mm 2 mps 674 mmHg 97%
    08:00 +6°C° 0.9 mm 2 mps 675 mmHg 96%
    09:00 +6°C° 0.9 mm 2 mps 675 mmHg 95%
    10:00 +7°C° 0.9 mm 2 mps 676 mmHg 94%
    11:00 +8°C° 0.3 mm 2 mps 676 mmHg 91%
    12:00 +9°C° 0.3 mm 2 mps 676 mmHg 88%
    13:00 +9°C° 0.3 mm 2 mps 675 mmHg 84%
    14:00 +10°C° 0.1 mm 2 mps 675 mmHg 84%
    15:00 +10°C° 0.1 mm 2 mps 676 mmHg 84%
    16:00 +10°C° 0.1 mm 2 mps 676 mmHg 83%
    17:00 +9°C° 0 mm 2 mps 676 mmHg 86%
    18:00 +9°C° 0 mm 1 mps 676 mmHg 89%
    19:00 +8°C° 0 mm 1 mps 676 mmHg 92%
    20:00 +6°C° 0 mm 2 mps 676 mmHg 92%
    21:00 +6°C° 0 mm 2 mps 676 mmHg 93%
    22:00 +5°C° 0 mm 2 mps 677 mmHg 93%
    23:00 +5°C° 0 mm 2 mps 677 mmHg 93%
    Show more